Theta_e
312 312 317 312 308 307 311 311 310 312 318 321 328 330 335 336 334 328 336 336 337 343 342 339 338 338 337 333 336 341 341 338 335 331 328 334 335 335 334 333 333 331 331 331 330 329 328 328 328
314 318 315 305 307 309 309 309 311 311 321 323 328 335 337 340 336 332 333 333 335 341 340 337 337 337 335 334 331 335 340 337 336 333 334 334 334 333 332 332 332 331 331 330 329 330 326 326 325
316 319 310 307 305 310 310 310 311 313 320 323 322 332 332 333 335 336 335 331 333 335 339 338 333 330 331 329 330 333 336 337 336 335 334 334 333 331 331 331 331 330 331 331 332 331 328 324 322
313 309 304 309 310 309 311 310 310 310 317 322 323 325 328 325 331 333 331 328 333 335 337 336 332 328 328 326 329 329 333 331 333 334 333 333 332 331 331 330 329 329 329 329 329 329 325 319 314
312 305 308 310 310 309 308 309 310 311 320 324 322 322 327 325 328 327 328 328 332 333 332 334 332 326 325 323 327 325 327 331 332 333 331 331 331 329 330 329 329 328 326 326 327 325 320 311 308
309 305 310 310 310 310 310 310 312 315 321 325 327 327 326 328 324 327 328 329 332 333 333 333 330 328 330 330 329 329 328 330 331 332 330 331 329 328 329 329 328 325 320 322 321 319 314 311 308
309 307 310 310 311 312 312 311 316 323 326 327 325 326 326 326 324 327 328 328 330 331 332 332 331 330 330 330 328 329 329 328 330 330 330 331 327 327 327 328 325 318 317 318 319 318 314 312 310
307 309 311 310 312 312 311 315 321 324 324 326 328 330 326 324 324 327 327 327 328 330 330 330 330 328 327 328 327 327 330 328 330 328 330 329 327 326 325 325 318 314 317 319 319 318 316 314 313
306 309 310 312 310 311 310 313 319 321 326 326 329 330 326 325 326 326 325 326 328 328 328 329 328 327 327 327 327 329 328 329 329 325 327 326 324 322 320 319 313 312 315 319 319 318 317 315 313
309 309 310 309 309 312 311 312 313 322 322 323 328 326 324 325 326 326 325 324 324 326 326 327 327 327 327 325 327 329 329 328 326 325 326 324 320 315 311 312 313 311 310 311 315 318 317 316 314
307 310 310 311 310 310 310 310 317 321 323 321 324 327 326 326 325 325 325 324 323 323 324 324 324 325 325 325 328 327 326 326 325 322 324 320 315 311 308 308 310 310 309 310 312 316 316 315 313
313 310 311 311 311 311 310 314 321 319 319 325 321 325 326 326 326 325 324 323 323 322 322 322 322 322 321 324 325 326 325 323 322 322 322 318 314 310 308 307 309 309 309 309 310 312 313 312 311
310 311 310 309 309 310 313 315 320 321 319 325 325 326 326 326 326 325 323 322 322 321 321 321 321 321 319 321 324 325 323 321 320 320 322 315 313 310 308 306 308 309 309 308 307 307 308 309 311
312 311 311 311 312 312 316 318 324 319 324 327 326 326 327 327 326 324 322 321 321 321 321 320 320 319 319 320 323 324 323 322 322 322 318 315 314 312 308 306 308 310 309 308 308 308 307 308 307
313 314 311 311 312 312 313 318 323 319 324 323 327 327 326 327 325 323 322 321 321 321 321 320 319 317 319 320 321 322 322 321 322 322 316 315 315 316 314 309 309 312 310 310 310 308 306 306 306
313 312 313 311 312 313 314 314 314 314 322 321 327 328 328 326 325 322 321 321 321 321 321 321 319 318 318 320 321 322 322 323 323 321 316 316 316 317 313 315 312 313 314 315 311 307 306 305 305
311 312 311 311 312 315 312 314 313 319 321 322 328 328 327 325 324 322 321 320 320 321 321 320 319 318 318 319 320 321 322 322 322 321 318 316 316 315 317 315 313 315 315 314 311 310 309 307 306
314 314 312 313 313 313 313 312 312 319 320 322 326 326 326 326 325 323 320 321 319 321 321 321 320 318 318 319 321 320 321 321 321 317 317 319 315 315 315 314 313 315 315 314 314 313 310 309 308
312 313 315 312 312 315 314 313 313 316 323 323 325 327 326 326 323 322 322 320 319 321 321 321 320 319 319 320 321 321 320 321 320 317 314 320 316 315 315 314 314 315 314 316 315 313 312 311 310
314 314 314 312 313 313 313 314 313 318 320 323 323 326 325 325 325 324 322 321 320 320 321 321 320 319 320 320 321 322 322 322 319 318 319 318 316 315 315 315 315 315 316 317 316 316 314 313 311
315 315 315 314 313 313 315 315 315 318 319 320 320 322 325 326 327 324 322 320 320 319 320 321 320 320 319 319 320 321 322 322 321 321 321 320 318 317 316 315 317 318 317 318 317 317 316 315 312
315 313 315 314 315 316 315 318 315 315 319 321 320 320 324 326 325 323 321 319 319 319 318 320 320 319 319 319 319 321 320 321 322 321 320 321 321 321 320 318 319 321 319 319 319 318 318 316 314
316 313 314 314 315 316 317 316 315 317 319 318 319 319 321 324 324 323 320 319 318 318 318 319 320 319 319 318 318 319 320 321 321 322 321 322 322 322 322 323 322 322 321 321 321 320 318 317 315
316 315 316 317 316 319 318 318 317 316 318 318 318 317 318 322 324 323 320 318 317 317 318 319 319 319 319 318 317 318 320 319 321 321 321 321 321 321 321 322 322 322 322 322 322 321 320 319 316
315 316 319 319 321 322 317 318 319 316 315 316 316 316 316 320 323 322 319 317 316 316 318 318 318 318 318 318 317 317 318 319 319 320 320 319 319 319 320 320 320 321 321 321 322 322 321 320 318
316 316 319 324 322 321 321 323 320 318 317 316 315 315 317 320 323 323 321 319 317 316 317 317 316 316 317 318 318 317 317 317 317 318 317 317 317 317 318 319 319 319 319 320 321 321 322 321 321
316 318 316 321 323 324 321 320 317 317 316 315 314 314 317 320 323 323 321 320 318 317 316 317 316 316 316 316 317 317 317 317 317 317 317 317 316 319 320 320 320 320 320 320 321 321 321 321 322
315 316 321 320 327 328 322 323 320 318 317 315 314 316 318 320 322 322 322 320 319 317 316 316 316 316 316 315 315 316 316 317 318 317 316 316 319 321 321 320 319 319 320 320 322 322 320 321 322
315 316 320 321 320 322 323 321 317 318 318 318 314 313 317 320 321 323 322 321 319 317 315 315 316 315 314 314 314 315 316 317 317 317 315 314 317 319 320 320 319 319 321 322 321 321 321 321 319
313 315 319 321 324 320 319 320 316 317 316 315 312 312 316 319 320 321 322 322 319 317 315 314 315 315 314 314 314 315 315 315 315 317 317 318 318 320 321 321 321 322 322 322 322 321 321 320 319
Wind_Speed
6 4 3 4 4 5 2 5 2 4 3 1 5 4 2 1 0 3 4 4 2 11 18 20 19 19 22 21 20 26 35 40 41 41 41 38 36 34 34 32 33 34 32 30 29 29 28 27 25
8 6 4 2 4 3 4 4 6 7 3 3 3 2 2 3 1 1 2 5 3 10 18 23 24 24 20 16 13 17 29 39 39 39 38 38 37 35 35 34 33 34 32 29 29 29 28 26 25
6 3 3 4 3 4 4 6 8 4 5 4 2 2 1 3 2 4 4 3 6 10 20 25 28 31 26 14 3 9 21 31 37 39 39 37 38 36 35 35 33 32 31 28 26 24 26 25 24
3 5 4 4 3 6 6 6 7 6 2 5 4 2 1 3 2 4 7 7 1 12 13 23 26 29 30 24 25 8 15 21 30 35 37 36 36 34 34 35 33 31 29 27 26 30 27 24 24
4 3 4 1 4 5 5 6 3 4 2 1 2 2 4 3 5 7 8 8 4 9 16 22 26 24 21 21 31 33 29 30 31 36 36 35 34 34 34 36 31 29 27 27 29 30 29 26 26
4 3 3 3 4 5 6 6 4 2 3 2 2 1 5 3 4 4 6 4 3 6 13 22 24 19 17 26 27 31 36 33 33 34 37 36 37 34 34 37 31 29 27 30 31 30 28 27 28
6 4 5 3 4 6 4 4 2 3 3 5 4 3 1 3 4 3 2 3 3 6 9 28 25 23 24 26 28 32 34 35 38 38 39 35 39 36 36 36 33 29 27 29 32 30 29 29 28
5 4 4 4 3 7 3 3 2 4 6 1 4 7 4 3 5 4 2 1 3 9 13 25 28 24 22 22 23 30 38 38 40 43 40 36 38 36 38 36 33 29 29 30 32 30 27 27 27
4 4 3 5 6 6 4 2 1 1 2 1 3 0 2 9 9 8 6 3 5 8 15 23 27 19 13 8 5 18 42 39 35 37 40 39 40 37 35 37 35 31 31 31 31 29 26 26 25
3 4 8 7 5 5 7 4 4 3 2 5 3 4 7 9 8 8 8 7 8 9 11 15 22 19 16 7 6 14 32 41 40 39 40 40 39 37 36 35 35 32 30 29 29 28 27 26 25
5 6 5 6 9 5 5 4 5 6 5 10 6 12 10 6 7 7 7 10 11 11 11 12 13 16 15 15 24 28 38 44 42 37 40 39 39 38 37 35 34 32 30 30 31 30 27 24 22
3 7 5 6 5 3 4 3 4 8 9 1 6 15 12 10 8 9 9 12 14 13 12 13 14 18 19 24 26 32 29 39 43 37 34 39 39 37 36 35 34 30 28 29 28 27 25 22 19
5 5 6 8 9 7 4 8 5 9 6 6 8 12 11 9 9 10 10 13 15 16 15 15 19 20 21 24 28 30 35 41 37 37 35 37 37 36 34 33 33 28 26 25 26 25 23 21 21
4 4 8 7 9 5 5 1 2 10 9 8 8 9 10 10 10 8 9 12 16 17 19 18 20 22 22 25 28 27 35 39 37 37 39 39 39 36 33 31 30 26 24 24 22 20 20 21 18
4 7 8 6 5 7 6 5 8 9 10 10 9 10 9 10 12 12 15 14 15 18 20 20 21 24 24 26 23 24 31 39 35 35 37 37 36 33 31 31 26 23 23 22 19 19 20 19 17
2 1 3 2 5 2 6 9 13 7 11 9 11 10 9 12 12 13 13 14 17 18 21 21 22 25 20 25 23 24 25 32 33 34 36 36 33 34 34 28 27 23 22 20 20 21 19 17 16
2 5 5 9 5 3 5 10 7 4 6 8 9 9 11 11 12 13 14 14 17 19 20 20 21 24 22 22 22 23 22 23 28 27 28 26 29 30 29 30 27 22 20 19 19 19 18 16 15
5 5 5 7 2 2 3 11 11 4 6 7 8 8 9 12 13 15 15 15 16 18 20 21 21 25 25 21 20 22 21 19 30 27 24 26 29 28 27 26 25 22 20 21 18 17 16 16 13
4 4 4 5 4 4 8 7 16 3 5 8 8 9 10 12 8 15 16 18 17 19 20 22 24 27 28 26 22 24 25 25 26 34 35 28 29 26 24 25 24 22 23 20 18 17 16 15 14
6 4 11 12 11 8 8 12 11 4 6 7 9 8 9 7 8 13 17 18 19 20 20 21 22 28 29 28 24 17 25 27 31 31 32 30 30 27 27 27 25 25 24 22 23 21 17 14 16
13 13 10 10 7 4 5 7 7 3 5 4 7 7 8 13 15 12 13 18 19 20 21 21 22 24 27 25 25 18 23 19 27 32 30 27 26 27 26 25 25 25 26 26 26 24 22 19 19
7 11 10 7 2 4 2 5 7 6 7 5 7 9 11 13 12 14 13 18 20 22 22 23 24 25 25 27 31 25 25 18 20 31 31 26 27 26 26 27 28 28 30 27 28 24 25 22 21
11 9 10 6 6 1 5 2 7 2 6 9 8 11 12 14 16 16 18 22 21 21 26 27 28 25 29 29 32 31 26 28 27 30 29 29 29 30 29 28 31 30 30 30 27 26 27 28 28
1 4 4 1 2 4 9 6 5 5 7 6 6 7 11 14 15 13 19 19 19 21 26 29 28 27 29 34 33 34 33 30 28 31 32 33 33 32 32 32 32 31 30 29 29 30 30 32 33
6 4 2 1 1 6 6 4 10 7 9 8 10 10 9 14 15 15 16 15 22 27 30 29 30 29 31 34 36 38 38 33 33 35 36 34 33 34 35 32 32 32 32 32 32 33 33 34 34
11 10 5 6 5 4 2 6 6 8 7 8 9 10 7 10 13 17 18 21 25 27 31 32 32 30 34 36 36 37 35 36 34 32 32 33 34 34 32 32 30 32 33 35 34 35 36 37 34
6 13 8 5 2 2 4 6 8 8 7 7 9 6 8 11 14 17 17 23 26 28 32 35 31 32 33 36 35 32 33 33 31 34 32 33 34 32 29 29 30 30 30 33 33 34 36 35 28
8 7 4 1 5 4 4 4 6 8 12 9 8 8 8 8 10 13 14 20 26 27 29 33 31 33 33 33 32 30 30 31 32 31 34 36 36 36 36 35 33 30 28 29 29 32 32 31 32
5 14 3 4 5 6 3 6 7 8 8 9 9 8 8 8 10 13 14 21 22 23 29 35 37 34 34 36 32 29 28 30 35 41 44 46 45 43 41 42 38 33 32 33 30 32 27 27 30
9 9 10 5 4 2 3 8 5 6 7 3 9 8 6 7 7 9 11 16 22 25 28 32 30 33 30 31 31 40 41 42 49 52 49 40 40 47 43 37 32 36 35 34 32 33 35 29 31
Wind_Direction
154 155 124 48 56 64 286 263 252 269 309 345 305 245 244 36 237 213 44 84 90 163 167 162 165 163 167 163 162 152 151 156 155 154 149 148 147 145 140 135 131 130 129 126 123 120 118 116 118
142 130 63 78 87 60 275 263 235 223 213 290 192 309 280 298 353 356 36 15 342 168 166 166 153 144 140 146 157 173 148 153 152 151 149 150 149 145 140 137 136 134 131 129 129 122 120 121 120
144 112 86 91 105 168 221 222 255 235 260 185 192 156 312 263 254 187 210 308 311 215 183 166 163 153 143 157 86 203 161 151 151 152 151 151 148 144 143 139 138 136 133 134 133 130 128 125 124
147 25 39 92 213 248 218 240 244 296 339 161 182 293 286 237 239 243 278 278 267 194 175 174 166 172 183 184 174 212 178 166 158 154 149 150 145 145 143 141 141 139 136 134 134 132 133 128 122
62 58 56 45 249 263 250 261 183 222 250 322 150 259 242 237 235 266 282 300 196 188 190 193 186 180 196 201 188 207 210 187 168 158 147 149 145 143 142 141 141 139 137 135 132 133 134 126 123
47 99 74 250 244 250 270 255 278 190 143 118 347 23 250 205 253 306 315 303 243 187 184 186 186 181 177 184 200 204 195 183 171 161 155 154 148 144 144 140 145 144 143 141 138 135 131 126 120
123 92 200 222 261 298 223 261 328 273 175 217 134 228 226 228 255 270 320 310 263 245 197 182 188 179 177 174 180 190 198 192 175 163 159 155 149 146 143 144 150 146 142 145 142 137 134 126 121
114 97 159 237 215 264 236 338 180 158 250 55 112 238 255 187 190 177 186 159 137 152 169 178 186 190 201 210 216 205 195 192 175 164 153 157 150 149 151 150 148 144 140 143 144 141 135 127 120
132 80 229 234 172 242 227 344 211 69 219 258 185 306 160 157 162 149 141 173 162 152 165 171 187 174 161 180 237 224 203 193 163 160 158 159 153 152 147 148 148 144 138 141 146 144 137 131 126
119 145 220 215 208 248 291 200 247 183 172 251 200 143 151 152 170 158 162 181 181 181 175 179 188 185 196 216 225 192 182 166 156 157 154 158 154 150 145 149 154 146 139 140 144 147 145 140 132
180 212 204 247 233 245 273 299 198 152 246 221 219 173 166 166 193 193 182 195 190 186 195 190 188 184 191 181 146 135 136 137 152 155 160 155 150 148 143 150 152 146 141 140 143 153 151 143 135
216 247 210 262 231 211 230 168 227 185 228 87 185 161 159 166 187 193 187 194 190 182 185 180 178 171 176 165 146 143 145 148 151 161 159 157 150 147 149 152 150 148 146 141 143 149 148 143 146
212 244 249 246 278 248 195 227 232 235 206 111 130 146 157 171 192 203 192 203 191 186 182 176 168 172 156 152 149 149 132 144 152 163 172 157 150 150 155 150 151 150 149 149 146 146 146 149 154
222 239 277 263 267 262 228 232 187 253 140 143 149 154 159 181 190 189 192 196 193 187 178 178 173 173 160 158 151 150 148 149 161 169 168 160 157 157 156 152 155 152 155 158 150 149 152 155 154
272 298 299 237 238 229 151 300 238 236 155 154 161 173 180 187 180 195 206 200 198 193 178 185 175 169 170 163 161 154 152 161 166 169 167 164 160 158 161 162 161 161 159 156 156 155 155 153 160
288 284 304 282 134 262 134 265 264 221 168 168 173 184 187 197 196 206 213 203 197 186 183 185 182 174 167 168 164 161 163 170 178 174 171 170 171 171 167 166 171 169 167 166 166 159 153 159 164
335 254 246 317 212 145 176 282 283 114 173 173 180 182 192 201 199 206 206 204 197 190 184 186 183 179 172 167 167 169 169 162 179 176 178 175 175 179 168 175 175 176 176 179 175 166 165 170 173
204 237 255 253 265 353 271 265 294 183 188 191 185 183 189 203 204 197 201 197 195 189 194 185 189 184 180 175 170 175 175 167 179 183 187 190 188 185 182 182 185 187 190 189 186 180 176 180 180
172 213 246 260 211 336 274 280 285 240 205 208 198 189 194 208 174 187 194 193 192 185 185 181 176 181 184 181 173 174 181 189 185 193 186 206 200 194 192 196 198 198 203 200 198 195 192 185 195
204 235 264 296 287 178 277 289 281 196 240 196 191 192 189 184 170 179 183 178 183 184 179 182 181 185 186 181 173 178 176 191 198 200 208 204 201 199 204 205 208 211 213 213 211 208 207 204 202
221 216 235 235 349 266 267 298 290 272 252 181 206 172 182 187 194 182 186 191 183 184 186 181 182 189 187 183 177 175 186 183 193 203 203 201 201 208 212 214 219 220 220 222 219 218 218 209 207
213 205 225 239 77 248 80 285 290 273 283 239 219 195 182 185 186 191 195 204 196 191 188 187 188 190 184 185 188 182 182 184 195 197 205 205 208 214 214 217 223 228 228 228 229 228 228 224 214
235 149 198 222 201 279 266 256 258 276 280 267 244 212 190 185 181 186 194 201 197 190 189 187 192 199 189 188 191 193 190 195 199 198 202 206 212 216 220 223 228 230 233 237 240 238 235 234 232
124 198 243 152 143 236 230 187 259 211 222 254 248 228 185 180 185 187 185 182 191 186 189 196 195 200 199 193 195 196 199 199 200 202 205 212 217 222 227 229 232 237 241 243 247 246 246 243 238
189 110 285 323 196 234 201 176 250 256 248 229 258 252 201 174 175 173 171 175 182 190 190 193 196 198 202 201 202 204 208 205 208 210 212 216 222 227 231 234 238 242 246 250 252 254 252 248 244
210 183 174 185 194 225 129 230 247 234 267 244 251 244 153 174 177 181 181 179 182 191 191 192 193 196 202 206 209 211 214 218 220 224 224 228 231 235 240 244 249 250 253 256 255 254 253 250 252
188 209 183 92 51 56 229 286 297 281 293 285 262 247 201 179 181 185 182 183 183 186 190 194 198 202 202 203 206 208 217 222 227 231 235 241 246 251 255 259 260 261 261 262 261 258 256 256 252
177 180 115 111 167 221 266 259 231 296 289 299 275 240 230 187 172 175 182 189 191 189 187 192 198 203 205 206 206 207 215 227 233 238 243 245 250 253 255 256 259 262 264 266 266 262 259 257 246
149 223 214 145 156 203 193 251 208 238 268 278 278 253 241 199 175 179 185 189 187 186 187 192 199 200 201 203 205 209 219 230 236 239 241 243 247 251 253 254 251 250 255 258 255 251 253 253 254
212 196 195 180 204 205 191 239 217 202 266 262 288 262 253 235 188 192 181 172 178 185 188 196 196 200 200 201 203 211 215 226 234 234 236 238 238 246 248 243 247 259 248 246 238 245 250 255 250